Regional Weather Roundup
Issued by NWS Albany, NY

Home | Current Version | Previous Version | Graphics & Text | Print | Product List | Glossary On
Versions: 1 2 3 4 5 6 7 8 9 10 11 12 13 14 15 16 17 18 19 20 21 22 23 24 25 26 27 28 29 30 31 32 33 34 35 36 37 38 39 40 41 42 43 44 45 46 47 48 49 50
000
ASUS41 KALY 011110
RWRALY

NEW YORK STATE HOURLY WEATHER ROUNDUP
NATIONAL WEATHER SERVICE ALBANY NY
700 AM EDT WED JUL 01 2015

NOTE: "FAIR" INDICATES FEW OR NO CLOUDS BELOW 12,000 FEET WITH NO
SIGNIFICANT WEATHER AND/OR NO OBSTRUCTIONS TO VISIBILITY.

NYZ032-033-038>043-046>054-057>066-NYZ062>081-011200-
EAST


CITY           SKY/WX    TMP DP  RH WIND       PRES   REMARKS
ALBANY         LGT RAIN  67  64  90 S7        29.75R
GLENS FALLS    CLOUDY    64  62  93 CALM      29.74F
POUGHKEEPSIE   LGT RAIN  67  64  90 E3        29.75F
NEWBURGH       LGT RAIN  66  66 100 CALM      29.77F
MONTGOMERY     LGT RAIN  66  65  96 CALM      29.75F FOG
WHITE PLAINS   CLOUDY    68  66  93 CALM      29.76F
ISLIP          CLOUDY    71  68  90 SW6       29.75S
NEW YORK CITY  LGT RAIN  71  66  84 CALM      29.77R
CENTRAL PARK   CLOUDY    69  66  90 VRB5      29.80R FOG
$$

NYZ005>009-017-018-044>046-055-056-011200-
CENTRAL


CITY           SKY/WX    TMP DP  RH WIND       PRES   REMARKS
FULTON         LGT RAIN  64  61  90 W6        29.71S
SYRACUSE       RAIN      65  64  97 W9        29.71R FOG
ROME           CLOUDY    63  62  97 SE3       29.73S
ELMIRA         CLOUDY    64  62  93 SW3       29.75S
BINGHAMTON     CLOUDY    61  60  97 SW7       29.76F FOG
MONTICELLO     CLOUDY    63  63 100 CALM      29.80R
$$

NYZ026>034-041>043-011200-
NORTH


CITY           SKY/WX    TMP DP  RH WIND       PRES   REMARKS
WATERTOWN      HVY RAIN  64  62  93 CALM      29.69S VSB 1/2
FORT DRUM      NOT AVBL
MASSENA        LGT RAIN  62  60  93 CALM      29.69F
SARANAC LAKE   CLOUDY    59  58  96 CALM      29.73F
PLATTSBURGH    CLOUDY    64  62  93 S7        29.71F
$$

NYZ001>004-010>016-019>021-011200-
WEST


CITY           SKY/WX    TMP DP  RH WIND       PRES   REMARKS
NIAGARA FALLS  CLOUDY    64  62  93 SW8       29.72S FOG
BUFFALO        LGT RAIN  63  61  93 SW5       29.74S
DUNKIRK        CLOUDY    64  62  93 SW8       29.75S
JAMESTOWN      CLOUDY    61  57  88 SW6       29.80S THUNDER
WELLSVILLE     CLOUDY    61  58  90 SW9       29.82R
ROCHESTER      PTSUNNY   63  60  90 SW9       29.73S
PENN YAN       PTSUNNY   64  60  87 SW6       29.75S
$$

             KEY
       WCI = WIND CHILL INDEX
       VSB = VISIBILITY
       HX  = HEAT INDEX
$$


USA.gov is the U.S. government's official web portal to all federal, state and local government web resources and services.